UAE751 OMDB-GMMN

Flight info

Callsign UAE751
Flight time N/A
Altitude 35000
Route ANVIX L223 TARDI N629 BOTAM Y855 LAKLU/N0502F340 Q204 NALKI G652 TOKRA DCT ALROK/N0503F360 DCT BOSOB DCT ITRUX Y511 PMA Z712 WEJ L677 CVO L617 MENKU/N0491F380 L617 NABSI M872 METRU DCT ARLOS DCT OMENI UL874 DIMAO UZ888 YEMZO/N0491F400 UZ888 ORSUP UA411 FES UR975 SADIC
Aircraft A388/J-SADE2E3FGHIJ3J4J5M1RWXY/LB1D1

Departure

Time 2026-05-06 15:34
Airport Dubai International Airport (OMDB)

Arrival

Time N/A
Airport Mohammed V International Airport (GMMN)
Time Latitude Longitude Altitude Speed Heading
2026-05-06 14:34 25.24397 55.37294 26 ft 0 kts 211°
2026-05-06 14:48 25.24401 55.37297 26 ft 0 kts 211°
2026-05-06 14:49 25.24397 55.37294 21 ft 0 kts 211°
2026-05-06 15:13 25.24419 55.37307 27 ft 5 kts 207°
2026-05-06 15:13 25.24446 55.37319 26 ft 4 kts 198°
2026-05-06 15:13 25.24469 55.37322 25 ft 3 kts 179°
2026-05-06 15:13 25.24486 55.37315 26 ft 3 kts 150°
2026-05-06 15:14 25.24500 55.37297 25 ft 4 kts 129°
2026-05-06 15:14 25.24513 55.37275 25 ft 2 kts 124°
2026-05-06 15:14 25.24514 55.37273 24 ft 0 kts 124°
2026-05-06 15:23 25.24509 55.37280 27 ft 3 kts 124°
2026-05-06 15:23 25.24494 55.37307 27 ft 5 kts 122°
2026-05-06 15:23 25.24469 55.37352 27 ft 8 kts 121°
2026-05-06 15:23 25.24436 55.37413 27 ft 10 kts 121°
2026-05-06 15:24 25.24395 55.37487 27 ft 12 kts 121°
2026-05-06 15:24 25.24350 55.37571 27 ft 13 kts 121°
2026-05-06 15:24 25.24299 55.37657 27 ft 10 kts 123°
2026-05-06 15:24 25.24281 55.37686 27 ft 1 kts 123°
2026-05-06 15:25 25.24269 55.37708 27 ft 5 kts 121°
2026-05-06 15:25 25.24263 55.37726 27 ft 4 kts 88°
2026-05-06 15:25 25.24268 55.37769 27 ft 2 kts 52°
2026-05-06 15:25 25.24274 55.37776 27 ft 2 kts 36°
2026-05-06 15:26 25.24294 55.37790 27 ft 4 kts 33°
2026-05-06 15:26 25.24311 55.37802 28 ft 5 kts 33°
2026-05-06 15:26 25.24340 55.37823 28 ft 5 kts 34°
2026-05-06 15:26 25.24373 55.37848 30 ft 6 kts 34°
2026-05-06 15:27 25.24411 55.37877 33 ft 7 kts 34°
2026-05-06 15:27 25.24479 55.37929 35 ft 18 kts 34°
2026-05-06 15:27 25.24588 55.38012 30 ft 20 kts 33°
2026-05-06 15:27 25.24608 55.38026 30 ft 0 kts 32°
2026-05-06 15:30 25.24610 55.38028 30 ft 2 kts 32°
2026-05-06 15:31 25.24626 55.38038 28 ft 3 kts 32°
2026-05-06 15:31 25.24647 55.38053 31 ft 4 kts 32°
2026-05-06 15:31 25.24669 55.38067 33 ft 3 kts 32°
2026-05-06 15:32 25.24699 55.38088 33 ft 3 kts 32°
2026-05-06 15:32 25.24725 55.38106 34 ft 6 kts 32°
2026-05-06 15:32 25.24749 55.38114 35 ft 2 kts 332°
2026-05-06 15:32 25.24762 55.38098 35 ft 6 kts 306°
2026-05-06 15:33 25.24862 55.37929 35 ft 58 kts 301°
2026-05-06 15:33 25.25194 55.37328 37 ft 122 kts 302°
2026-05-06 15:33 25.25723 55.36374 35 ft 163 kts 302°
2026-05-06 15:33 25.26335 55.35258 244 ft 174 kts 302°
2026-05-06 15:34 25.26976 55.34105 607 ft 179 kts 304°
2026-05-06 15:34 25.27656 55.32916 923 ft 181 kts 303°
2026-05-06 15:34 25.28317 55.31732 1297 ft 181 kts 302°
2026-05-06 15:34 25.28973 55.30540 1627 ft 184 kts 302°
2026-05-06 15:35 25.29393 55.29216 1760 ft 192 kts 270°
2026-05-06 15:35 25.29038 55.27770 2002 ft 195 kts 245°
2026-05-06 15:35 25.28405 55.26432 2131 ft 202 kts 243°
2026-05-06 15:35 25.27750 55.25048 2327 ft 203 kts 243°
2026-05-06 15:36 25.27119 55.23654 2571 ft 202 kts 244°
2026-05-06 15:36 25.26510 55.22256 2757 ft 202 kts 245°
2026-05-06 15:36 25.25900 55.20829 2936 ft 205 kts 245°
2026-05-06 15:36 25.25293 55.19399 2999 ft 212 kts 245°
2026-05-06 15:37 25.24603 55.17939 3024 ft 217 kts 232°
2026-05-06 15:37 25.23413 55.16912 3063 ft 225 kts 202°
2026-05-06 15:37 25.21813 55.16680 3247 ft 239 kts 176°
2026-05-06 15:37 25.20118 55.16876 3555 ft 250 kts 172°
2026-05-06 15:38 25.18511 55.17598 4059 ft 252 kts 143°
2026-05-06 15:38 25.17377 55.19066 4617 ft 255 kts 121°
2026-05-06 15:38 25.16533 55.20844 4877 ft 270 kts 118°
2026-05-06 15:38 25.15686 55.22726 5206 ft 278 kts 118°
2026-05-06 15:39 25.14818 55.24643 5760 ft 279 kts 118°
2026-05-06 15:39 25.13934 55.26549 6296 ft 280 kts 119°
2026-05-06 15:39 25.11947 55.30753 6983 ft 282 kts 119°
2026-05-06 15:40 25.11030 55.32664 7002 ft 282 kts 119°
2026-05-06 15:40 25.10173 55.34614 7003 ft 282 kts 115°
2026-05-06 15:40 25.09367 55.36588 7002 ft 282 kts 115°
2026-05-06 15:40 25.08557 55.38559 7003 ft 282 kts 116°
2026-05-06 15:41 25.07742 55.40535 7003 ft 282 kts 116°
2026-05-06 15:41 25.06925 55.42502 6996 ft 283 kts 115°
2026-05-06 15:41 25.06133 55.44504 7175 ft 285 kts 114°
2026-05-06 15:41 25.05365 55.46517 7716 ft 284 kts 114°
2026-05-06 15:42 25.04600 55.48526 8288 ft 285 kts 114°
2026-05-06 15:42 25.03835 55.50548 8813 ft 287 kts 114°
2026-05-06 15:42 25.03064 55.52573 9366 ft 288 kts 114°
2026-05-06 15:42 25.02275 55.54626 9907 ft 291 kts 115°
2026-05-06 15:43 25.01346 55.56622 10275 ft 298 kts 122°
2026-05-06 15:43 25.00246 55.58624 10406 ft 314 kts 122°
2026-05-06 15:43 24.99088 55.60744 10541 ft 329 kts 122°
2026-05-06 15:43 24.97892 55.62949 10678 ft 343 kts 122°
2026-05-06 15:44 24.96656 55.65234 11050 ft 348 kts 121°
2026-05-06 15:44 24.95414 55.67533 11506 ft 351 kts 121°
2026-05-06 15:44 24.94155 55.69855 11929 ft 355 kts 122°
2026-05-06 15:44 24.93204 55.71337 12225 ft 358 kts 126°
2026-05-06 15:45 24.91209 55.74316 12829 ft 363 kts 125°
2026-05-06 15:45 24.89714 55.76568 13301 ft 366 kts 124°
2026-05-06 15:45 24.88206 55.78847 13748 ft 369 kts 124°
2026-05-06 15:45 24.86688 55.81140 14201 ft 371 kts 125°
2026-05-06 15:46 24.85678 55.82664 14519 ft 373 kts 125°
2026-05-06 15:46 24.84144 55.84977 14893 ft 377 kts 125°
2026-05-06 15:46 24.82586 55.87309 15028 ft 389 kts 126°
2026-05-06 15:46 24.80949 55.89725 15154 ft 401 kts 126°
2026-05-06 15:47 24.79233 55.92244 15388 ft 408 kts 127°
2026-05-06 15:47 24.77402 55.94564 16306 ft 393 kts 134°
2026-05-06 15:47 24.75445 55.96605 17144 ft 386 kts 136°
2026-05-06 15:47 24.73477 55.98617 17506 ft 390 kts 136°